Location: Rotheul
(50.2849°N, 11.2349°E)
Time: 20:34:49
(UTC+01:00)

Envisat - Pass Details

Date: 21 October 2019
Orbit: 764 x 766 km, 98.1° (Epoch: 11 November)

Event Time Altitude Azimuth Distance (km) Brightness Sun altitude
Rises 18:53:18 0° 157° (SSE) 3,221 6.1 -7.2°
Reaches altitude 10° 18:55:36 10° 155° (SSE) 2,299 5.3 -7.6°
Maximum altitude 19:00:38 72° 72° (ENE) 808 3.0 -8.4°
Drops below altitude 10° 19:05:43 10° 349° (N) 2,315 5.6 -9.2°
Sets 19:08:02 0° 348° (NNW) 3,245 6.3 -9.6°
